�������l�o���
Date,Time,MP-1(��Sv/h),MP-2(��Sv/h),MP-3(��Sv/h),MP-4(��Sv/h),MP-5(��Sv/h),MP-6(��Sv/h),MP-7(��Sv/h),MP-8(��Sv/h),����,����(m/s),���J
2020/08/15,00:00,0.696,1.005,0.631,1.210,0.878,0.400,0.691,0.644,��,1.2,��
2020/08/15,00:10,0.698,1.008,0.632,1.209,0.879,0.399,0.690,0.645,��,1.2,��
2020/08/15,00:20,0.699,1.007,0.631,1.208,0.878,0.398,0.689,0.648,��쐼,0.8,��
2020/08/15,00:30,0.697,1.007,0.632,1.209,0.878,0.398,0.691,0.646,���쐼,1.2,��
2020/08/15,00:40,0.699,1.007,0.631,1.209,0.876,0.398,0.690,0.646,���쐼,2.3,��
2020/08/15,00:50,0.697,1.007,0.632,1.207,0.877,0.401,0.689,0.644,�쐼,4.0,��
2020/08/15,01:00,0.697,1.006,0.630,1.207,0.879,0.399,0.689,0.646,�쐼,5.2,��
2020/08/15,01:10,0.697,1.006,0.631,1.206,0.878,0.399,0.689,0.645,��쐼,5.3,��
2020/08/15,01:20,0.697,1.008,0.632,1.207,0.878,0.399,0.689,0.646,��쐼,3.9,��
2020/08/15,01:30,0.698,1.006,0.632,1.208,0.878,0.400,0.689,0.645,��쐼,2.3,��
2020/08/15,01:40,0.698,1.007,0.632,1.207,0.877,0.398,0.688,0.646,��쐼,2.6,��
2020/08/15,01:50,0.699,1.004,0.631,1.208,0.879,0.399,0.689,0.645,��쐼,2.5,��
2020/08/15,02:00,0.699,1.004,0.630,1.207,0.876,0.400,0.690,0.646,��쐼,1.5,��
2020/08/15,02:10,0.698,1.005,0.631,1.208,0.878,0.399,0.691,0.647,���쐼,0.9,��
2020/08/15,02:20,0.700,1.006,0.632,1.208,0.877,0.399,0.689,0.648,��쐼,0.9,��
2020/08/15,02:30,0.698,1.005,0.631,1.210,0.878,0.401,0.690,0.645,��쐼,1.4,��
2020/08/15,02:40,0.699,1.008,0.631,1.208,0.881,0.399,0.691,0.645,�쐼,1.2,��
2020/08/15,02:50,0.700,1.007,0.631,1.211,0.877,0.400,0.690,0.646,���쐼,2.0,��
2020/08/15,03:00,0.700,1.006,0.630,1.208,0.878,0.401,0.689,0.645,��,2.3,��
2020/08/15,03:10,0.700,1.007,0.631,1.210,0.877,0.399,0.690,0.647,���쐼,2.3,��
2020/08/15,03:20,0.698,1.004,0.631,1.209,0.877,0.399,0.689,0.646,�쐼,3.2,��
2020/08/15,03:30,0.701,1.005,0.631,1.209,0.877,0.399,0.691,0.646,�쐼,4.0,��
2020/08/15,03:40,0.698,1.007,0.630,1.211,0.879,0.400,0.690,0.648,���쐼,4.4,��
2020/08/15,03:50,0.700,1.005,0.630,1.207,0.878,0.400,0.691,0.646,���쐼,5.7,��
2020/08/15,04:00,0.701,1.004,0.629,1.207,0.875,0.399,0.688,0.647,���쐼,6.4,��
2020/08/15,04:10,0.700,1.005,0.632,1.209,0.878,0.399,0.689,0.646,���쐼,5.3,��
2020/08/15,04:20,0.700,1.004,0.630,1.208,0.877,0.400,0.691,0.645,�쐼,5.6,��
2020/08/15,04:30,0.701,1.004,0.631,1.208,0.879,0.399,0.690,0.646,�쐼,6.5,��
2020/08/15,04:40,0.697,1.003,0.631,1.209,0.876,0.400,0.691,0.645,�쐼,6.2,��
2020/08/15,04:50,0.701,1.004,0.631,1.208,0.876,0.399,0.690,0.644,�쐼,6.0,��
2020/08/15,05:00,0.700,1.004,0.631,1.211,0.875,0.400,0.689,0.646,��쐼,6.9,��
2020/08/15,05:10,0.699,1.002,0.631,1.210,0.878,0.401,0.690,0.647,��쐼,6.2,��
2020/08/15,05:20,0.698,1.005,0.630,1.207,0.879,0.399,0.691,0.646,��쐼,6.7,��
2020/08/15,05:30,0.700,1.004,0.629,1.210,0.876,0.401,0.689,0.647,��쐼,6.9,��
2020/08/15,05:40,0.700,1.004,0.631,1.207,0.876,0.399,0.691,0.646,�쐼,6.5,��
2020/08/15,05:50,0.700,1.003,0.631,1.209,0.878,0.401,0.690,0.645,��쐼,6.7,��
2020/08/15,06:00,0.701,1.006,0.631,1.208,0.878,0.402,0.690,0.645,��쐼,7.2,��
2020/08/15,06:10,0.699,1.005,0.632,1.211,0.877,0.402,0.691,0.645,��쐼,7.6,��
2020/08/15,06:20,0.701,1.006,0.632,1.209,0.875,0.400,0.690,0.646,��쐼,8.5,��
2020/08/15,06:30,0.701,1.006,0.631,1.210,0.877,0.399,0.690,0.647,��쐼,6.4,��
2020/08/15,06:40,0.702,1.004,0.630,1.209,0.877,0.400,0.691,0.645,��쐼,5.5,��
2020/08/15,06:50,0.700,1.004,0.630,1.207,0.877,0.401,0.689,0.646,��쐼,5.6,��
2020/08/15,07:00,0.703,1.006,0.632,1.210,0.878,0.401,0.691,0.644,��쐼,4.7,��
2020/08/15,07:10,0.703,1.004,0.632,1.208,0.878,0.401,0.692,0.645,��쐼,3.9,��
2020/08/15,07:20,0.702,1.002,0.633,1.208,0.877,0.402,0.690,0.645,��쐼,2.6,��
2020/08/15,07:30,0.703,1.001,0.630,1.209,0.877,0.400,0.692,0.647,��쐼,2.2,��
2020/08/15,07:40,0.703,1.004,0.632,1.209,0.876,0.400,0.692,0.647,��쐼,5.1,��
2020/08/15,07:50,0.702,1.004,0.631,1.210,0.875,0.400,0.691,0.648,��쐼,5.2,��
2020/08/15,08:00,0.702,1.004,0.631,1.209,0.879,0.401,0.693,0.647,��쐼,5.1,��
2020/08/15,08:10,0.701,1.003,0.631,1.210,0.876,0.399,0.694,0.648,��쐼,5.5,��
2020/08/15,08:20,0.703,1.004,0.631,1.210,0.877,0.401,0.692,0.647,��쐼,5.4,��
2020/08/15,08:30,0.702,1.006,0.630,1.208,0.878,0.403,0.693,0.647,�쐼,5.1,��
2020/08/15,08:40,0.701,1.004,0.632,1.207,0.880,0.402,0.693,0.646,��쐼,4.0,��
2020/08/15,08:50,0.702,1.005,0.632,1.210,0.878,0.399,0.693,0.643,�쐼,4.9,��
2020/08/15,09:00,0.704,1.005,0.632,1.211,0.880,0.401,0.692,0.646,���쐼,5.6,��
2020/08/15,09:10,0.703,1.005,0.633,1.212,0.880,0.400,0.693,0.645,���쐼,7.0,��
2020/08/15,09:20,0.703,1.008,0.633,1.212,0.880,0.401,0.693,0.644,�쐼,5.1,��
2020/08/15,09:30,0.703,1.003,0.631,1.213,0.882,0.400,0.691,0.645,���쐼,4.6,��
2020/08/15,09:40,0.703,1.007,0.634,1.212,0.882,0.403,0.691,0.646,���쐼,7.6,��
2020/08/15,09:50,0.704,1.006,0.634,1.213,0.884,0.400,0.691,0.645,��,7.8,��
2020/08/15,10:00,0.703,1.008,0.635,1.214,0.882,0.400,0.691,0.646,���쐼,6.7,��
2020/08/15,10:10,0.705,1.009,0.635,1.216,0.885,0.401,0.690,0.648,���쐼,5.9,��
2020/08/15,10:20,0.706,1.007,0.637,1.215,0.884,0.400,0.691,0.648,���쐼,7.4,��
2020/08/15,10:30,0.708,1.011,0.634,1.214,0.886,0.402,0.692,0.647,���쐼,7.2,��
2020/08/15,10:40,0.706,1.010,0.634,1.216,0.885,0.400,0.691,0.646,��,6.7,��
2020/08/15,10:50,0.706,1.009,0.634,1.216,0.887,0.402,0.692,0.647,��,5.9,��
2020/08/15,11:00,0.708,1.008,0.637,1.215,0.887,0.401,0.693,0.649,��,5.2,��
2020/08/15,11:10,0.708,1.009,0.635,1.213,0.888,0.403,0.692,0.649,��,6.5,��
2020/08/15,11:20,0.707,1.009,0.636,1.212,0.885,0.399,0.693,0.648,��,6.7,��
2020/08/15,11:30,0.707,1.010,0.636,1.213,0.887,0.401,0.692,0.648,���쐼,4.5,��
2020/08/15,11:40,0.709,0.982,0.635,1.212,0.886,0.402,0.694,0.651,��,4.2,��
2020/08/15,11:50,0.708,0.998,0.636,1.213,0.887,0.402,0.695,0.649,��,5.9,��
2020/08/15,12:00,0.708,1.011,0.634,1.212,0.888,0.401,0.693,0.650,��,5.4,��
2020/08/15,12:10,0.706,1.000,0.638,1.213,0.886,0.403,0.692,0.650,�쐼,6.0,��
2020/08/15,12:20,0.707,1.001,0.638,1.211,0.888,0.401,0.693,0.649,���쐼,7.4,��
2020/08/15,12:30,0.708,1.006,0.629,1.214,0.889,0.401,0.694,0.648,��,6.0,��
2020/08/15,12:40,0.709,1.006,0.636,1.218,0.889,0.401,0.696,0.648,��,7.0,��
2020/08/15,12:50,0.708,1.007,0.634,1.216,0.889,0.403,0.696,0.649,���쐼,5.5,��
2020/08/15,13:00,0.709,1.008,0.634,1.215,0.889,0.401,0.695,0.650,��,5.3,��
2020/08/15,13:10,0.708,1.007,0.633,1.218,0.893,0.393,0.696,0.650,��,8.9,��
2020/08/15,13:20,0.709,1.004,0.634,1.220,0.891,0.394,0.696,0.651,��,7.1,��
2020/08/15,13:30,0.710,1.008,0.635,1.217,0.891,0.396,0.696,0.650,��,7.0,��
2020/08/15,13:40,0.712,1.008,0.633,1.221,0.889,0.396,0.695,0.650,���쐼,7.3,��
2020/08/15,13:50,0.710,1.010,0.636,1.222,0.880,0.396,0.694,0.649,���k��,4.7,��
2020/08/15,14:00,0.708,1.009,0.633,1.223,0.887,0.395,0.695,0.647,���k��,5.6,��
2020/08/15,14:10,0.696,1.009,0.633,1.221,0.886,0.396,0.695,0.650,��,5.8,��
2020/08/15,14:20,0.705,1.008,0.635,1.219,0.885,0.396,0.694,0.649,���k��,4.9,��
2020/08/15,14:30,0.708,1.010,0.634,1.218,0.884,0.397,0.694,0.648,���k��,5.1,��
2020/08/15,14:40,0.707,1.010,0.636,1.219,0.886,0.396,0.695,0.646,��,7.4,��
2020/08/15,14:50,0.705,1.010,0.637,1.221,0.888,0.397,0.694,0.647,��,4.7,��
2020/08/15,15:00,0.705,1.010,0.637,1.220,0.886,0.397,0.693,0.647,��쐼,1.4,��
2020/08/15,15:10,0.704,1.009,0.636,1.220,0.887,0.397,0.692,0.646,��쐼,2.3,��
2020/08/15,15:20,0.703,1.008,0.636,1.221,0.885,0.399,0.691,0.647,��,2.3,��
2020/08/15,15:30,0.702,1.009,0.634,1.219,0.886,0.398,0.691,0.647,��쐼,1.9,��
2020/08/15,15:40,0.702,1.007,0.632,1.218,0.887,0.398,0.691,0.646,��쓌,1.7,��
2020/08/15,15:50,0.702,1.008,0.634,1.219,0.888,0.397,0.691,0.646,�k�k��,0.9,��
2020/08/15,16:00,0.701,1.009,0.635,1.218,0.889,0.398,0.693,0.646,�쐼,1.4,��
2020/08/15,16:10,0.702,1.010,0.632,1.219,0.889,0.398,0.691,0.647,�k��,0.9,��
2020/08/15,16:20,0.702,1.008,0.632,1.217,0.888,0.397,0.691,0.648,��,1.1,��
2020/08/15,16:30,0.701,1.006,0.632,1.221,0.888,0.396,0.691,0.648,-,CALM,��
2020/08/15,16:40,0.701,1.008,0.633,1.218,0.889,0.396,0.691,0.646,���k��,0.6,��
2020/08/15,16:50,0.702,1.008,0.633,1.219,0.887,0.397,0.689,0.646,�k,1.1,��
2020/08/15,17:00,0.703,1.008,0.632,1.220,0.884,0.395,0.691,0.647,���k��,1.7,�L
2020/08/15,17:10,0.702,1.006,0.632,1.218,0.888,0.395,0.691,0.646,-,CALM,��
2020/08/15,17:20,0.699,1.008,0.631,1.221,0.887,0.396,0.693,0.647,�쓌,2.0,��
2020/08/15,17:30,0.703,1.008,0.633,1.217,0.886,0.394,0.692,0.647,���쓌,2.8,��
2020/08/15,17:40,0.702,1.006,0.631,1.218,0.885,0.396,0.691,0.647,���쓌,2.0,��
2020/08/15,17:50,0.700,1.006,0.631,1.218,0.886,0.396,0.691,0.647,���쓌,1.9,��
2020/08/15,18:00,0.704,1.007,0.632,1.218,0.883,0.395,0.692,0.646,��쓌,1.2,��
2020/08/15,18:10,0.701,1.006,0.633,1.217,0.885,0.396,0.692,0.647,��,0.9,��
2020/08/15,18:20,0.700,1.004,0.633,1.218,0.884,0.396,0.692,0.647,���k��,2.0,�L
2020/08/15,18:30,0.698,1.005,0.631,1.218,0.886,0.395,0.692,0.647,�k�k��,2.8,�L
2020/08/15,18:40,0.698,1.006,0.632,1.218,0.885,0.395,0.692,0.647,�k,3.6,��
2020/08/15,18:50,0.704,1.007,0.633,1.220,0.886,0.395,0.690,0.647,�k,2.6,��
2020/08/15,19:00,0.701,1.007,0.633,1.217,0.887,0.396,0.693,0.646,�k,2.2,��
2020/08/15,19:10,0.702,1.006,0.633,1.221,0.885,0.397,0.692,0.647,�k�k��,1.4,�L
2020/08/15,19:20,0.702,1.010,0.632,1.217,0.885,0.396,0.691,0.646,�k�k��,1.7,�L
2020/08/15,19:30,0.701,1.007,0.633,1.218,0.885,0.398,0.691,0.647,�k��,1.2,��
2020/08/15,19:40,0.703,1.007,0.633,1.220,0.884,0.397,0.692,0.646,�k��,0.9,��
2020/08/15,19:50,0.704,1.007,0.631,1.217,0.885,0.396,0.691,0.648,�k�k��,1.9,��
2020/08/15,20:00,0.702,1.005,0.633,1.219,0.886,0.397,0.692,0.645,�k��,1.5,��
2020/08/15,20:10,0.702,1.006,0.633,1.220,0.884,0.397,0.694,0.647,�k�k��,3.0,��
2020/08/15,20:20,0.703,1.006,0.635,1.217,0.883,0.396,0.691,0.645,�k�k��,3.3,��
2020/08/15,20:30,0.703,1.008,0.632,1.219,0.884,0.398,0.691,0.646,�k,2.0,�L
2020/08/15,20:40,0.702,1.008,0.633,1.220,0.883,0.399,0.692,0.647,�k�k��,2.8,��
2020/08/15,20:50,0.703,1.004,0.634,1.221,0.883,0.397,0.692,0.648,�k��,3.0,��
2020/08/15,21:00,0.701,1.008,0.632,1.219,0.881,0.398,0.691,0.648,���k��,2.2,��
2020/08/15,21:10,0.702,1.007,0.632,1.218,0.883,0.397,0.691,0.646,���k��,4.9,��
2020/08/15,21:20,0.702,1.004,0.632,1.219,0.880,0.397,0.692,0.646,���k��,5.2,��
2020/08/15,21:30,0.704,1.005,0.635,1.219,0.881,0.398,0.693,0.646,���k��,5.1,��
2020/08/15,21:40,0.700,1.007,0.635,1.218,0.883,0.398,0.692,0.647,���k��,5.3,��
2020/08/15,21:50,0.703,1.007,0.634,1.220,0.883,0.398,0.694,0.647,���k��,6.2,��
2020/08/15,22:00,0.702,1.006,0.632,1.218,0.883,0.396,0.691,0.647,���k��,5.3,��
2020/08/15,22:10,0.703,1.006,0.634,1.220,0.881,0.396,0.692,0.647,��,5.1,��
2020/08/15,22:20,0.702,1.005,0.633,1.218,0.882,0.397,0.693,0.647,���k��,6.3,��
2020/08/15,22:30,0.701,1.005,0.634,1.216,0.883,0.397,0.692,0.646,���k��,7.4,��
2020/08/15,22:40,0.704,1.006,0.634,1.219,0.884,0.397,0.692,0.647,��,7.0,��
2020/08/15,22:50,0.703,1.006,0.634,1.220,0.883,0.398,0.693,0.647,��,5.5,��
2020/08/15,23:00,0.704,1.008,0.633,1.218,0.882,0.397,0.693,0.646,��,3.1,��
2020/08/15,23:10,0.704,1.006,0.632,1.219,0.881,0.396,0.692,0.649,���k��,3.2,��
2020/08/15,23:20,0.704,1.006,0.634,1.220,0.883,0.398,0.693,0.646,���k��,2.0,��
2020/08/15,23:30,0.703,1.007,0.632,1.219,0.883,0.397,0.693,0.647,��,0.6,��
2020/08/15,23:40,0.701,1.005,0.636,1.218,0.882,0.397,0.694,0.648,���쐼,1.4,��
2020/08/15,23:50,0.703,1.006,0.632,1.220,0.881,0.398,0.693,0.648,�쐼,2.8,��
